TimeEDT,TemperatureF,Dew PointF,Humidity,Sea Level PressureIn,VisibilityMPH,Wind Direction,Wind SpeedMPH,Gust SpeedMPH,PrecipitationIn,Events,Conditions,WindDirDegrees,DateUTC
12:13 AM,60.8,42.8,52,30.06,10.0,NNE,5.8,-,N/A,,Clear,30,2013-06-19 04:13:00
12:33 AM,59.0,42.8,55,30.06,10.0,NNE,5.8,-,N/A,,Clear,20,2013-06-19 04:33:00
12:54 AM,59.0,42.8,55,30.06,10.0,NNE,4.6,-,N/A,,Clear,20,2013-06-19 04:54:00
1:14 AM,57.2,42.8,59,30.06,10.0,NNE,4.6,-,N/A,,Clear,20,2013-06-19 05:14:00
1:34 AM,57.2,42.8,59,30.06,10.0,Calm,Calm,-,N/A,,Clear,0,2013-06-19 05:34:00
1:54 AM,57.2,42.8,59,30.07,10.0,NNE,3.5,-,N/A,,Clear,30,2013-06-19 05:54:00
2:14 AM,55.4,42.8,63,30.07,10.0,Calm,Calm,-,N/A,,Clear,0,2013-06-19 06:14:00
2:34 AM,53.6,46.4,77,30.07,10.0,Calm,Calm,-,N/A,,Clear,0,2013-06-19 06:34:00
2:54 AM,51.8,44.6,76,30.08,10.0,Calm,Calm,-,N/A,,Clear,0,2013-06-19 06:54:00
3:14 AM,53.6,44.6,72,30.07,10.0,North,3.5,-,N/A,,Clear,360,2013-06-19 07:14:00
3:34 AM,51.8,44.6,76,30.08,10.0,North,3.5,-,N/A,,Clear,360,2013-06-19 07:34:00
3:55 AM,51.8,44.6,76,30.08,10.0,North,3.5,-,N/A,,Clear,360,2013-06-19 07:55:00
4:15 AM,51.8,44.6,76,30.08,10.0,Calm,Calm,-,N/A,,Clear,0,2013-06-19 08:15:00
4:35 AM,51.8,44.6,76,30.09,10.0,North,3.5,-,N/A,,Clear,10,2013-06-19 08:35:00
4:55 AM,51.8,44.6,76,30.09,10.0,North,3.5,-,N/A,,Clear,10,2013-06-19 08:55:00
5:15 AM,51.8,44.6,76,30.08,10.0,Calm,Calm,-,N/A,,Clear,0,2013-06-19 09:15:00
5:35 AM,51.8,44.6,76,30.09,10.0,Calm,Calm,-,N/A,,Clear,0,2013-06-19 09:35:00
5:55 AM,50.0,44.6,82,30.09,10.0,North,3.5,-,N/A,,Clear,10,2013-06-19 09:55:00
6:15 AM,51.8,46.4,82,30.10,10.0,North,5.8,-,N/A,,Clear,10,2013-06-19 10:15:00
6:35 AM,51.8,46.4,82,30.11,10.0,North,4.6,-,N/A,,Clear,10,2013-06-19 10:35:00
6:56 AM,53.6,46.4,77,30.12,10.0,North,4.6,-,N/A,,Clear,10,2013-06-19 10:56:00
7:16 AM,53.6,46.4,77,30.13,10.0,North,5.8,-,N/A,,Clear,10,2013-06-19 11:16:00
7:36 AM,55.4,48.2,77,30.14,10.0,Calm,Calm,-,N/A,,Clear,0,2013-06-19 11:36:00
7:56 AM,57.2,48.2,72,30.14,10.0,NE,4.6,-,N/A,,Clear,50,2013-06-19 11:56:00
8:16 AM,59.0,50.0,72,30.14,10.0,ENE,5.8,-,N/A,,Clear,60,2013-06-19 12:16:00
8:36 AM,60.8,51.8,72,30.15,10.0,ENE,5.8,-,N/A,,Clear,70,2013-06-19 12:36:00
8:56 AM,62.6,51.8,68,30.15,10.0,ENE,5.8,-,N/A,,Clear,60,2013-06-19 12:56:00
9:16 AM,64.4,51.8,64,30.15,10.0,ENE,5.8,-,N/A,,Clear,70,2013-06-19 13:16:00
9:31 AM,64.4,53.6,68,30.15,10.0,ENE,6.9,-,N/A,,Clear,70,2013-06-19 13:31:00
9:51 AM,66.2,53.6,64,30.16,10.0,ENE,4.6,-,N/A,,Clear,70,2013-06-19 13:51:00
10:12 AM,66.2,53.6,64,30.16,10.0,NE,6.9,-,N/A,,Clear,50,2013-06-19 14:12:00
10:32 AM,68.0,53.6,60,30.15,10.0,Calm,Calm,-,N/A,,Clear,0,2013-06-19 14:32:00
10:52 AM,69.8,53.6,56,30.15,10.0,ENE,5.8,-,N/A,,Clear,70,2013-06-19 14:52:00
11:12 AM,69.8,53.6,56,30.15,10.0,Calm,Calm,-,N/A,,Clear,0,2013-06-19 15:12:00
11:32 AM,69.8,53.6,56,30.15,10.0,East,4.6,-,N/A,,Clear,100,2013-06-19 15:32:00
11:52 AM,69.8,53.6,56,30.15,10.0,ESE,6.9,-,N/A,,Clear,120,2013-06-19 15:52:00
12:12 PM,69.8,53.6,56,30.15,10.0,ESE,5.8,-,N/A,,Clear,110,2013-06-19 16:12:00
12:32 PM,69.8,53.6,56,30.16,10.0,East,6.9,-,N/A,,Clear,100,2013-06-19 16:32:00
12:52 PM,69.8,53.6,56,30.15,10.0,SSE,5.8,-,N/A,,Clear,150,2013-06-19 16:52:00
1:13 PM,71.6,53.6,53,30.15,10.0,SE,8.1,-,N/A,,Clear,140,2013-06-19 17:13:00
1:33 PM,71.6,53.6,53,30.15,10.0,ESE,3.5,-,N/A,,Clear,110,2013-06-19 17:33:00
1:53 PM,71.6,53.6,53,30.15,10.0,ESE,8.1,-,N/A,,Clear,110,2013-06-19 17:53:00
2:13 PM,71.6,53.6,53,30.15,10.0,SE,6.9,-,N/A,,Clear,130,2013-06-19 18:13:00
2:33 PM,71.6,51.8,50,30.14,10.0,SE,8.1,-,N/A,,Clear,130,2013-06-19 18:33:00
2:53 PM,71.6,51.8,50,30.15,10.0,SSE,6.9,-,N/A,,Clear,150,2013-06-19 18:53:00
3:13 PM,73.4,53.6,50,30.14,10.0,SSE,10.4,-,N/A,,Clear,150,2013-06-19 19:13:00
3:33 PM,71.6,53.6,53,30.14,10.0,SSE,10.4,-,N/A,,Clear,160,2013-06-19 19:33:00
3:54 PM,71.6,53.6,53,30.13,10.0,SSE,9.2,-,N/A,,Clear,150,2013-06-19 19:54:00
4:14 PM,71.6,55.4,57,30.13,10.0,SSE,9.2,-,N/A,,Clear,150,2013-06-19 20:14:00
4:34 PM,71.6,53.6,53,30.13,10.0,ESE,4.6,-,N/A,,Clear,120,2013-06-19 20:34:00
4:54 PM,71.6,53.6,53,30.13,10.0,ESE,6.9,-,N/A,,Clear,110,2013-06-19 20:54:00
5:14 PM,71.6,55.4,57,30.13,10.0,SSE,8.1,-,N/A,,Clear,150,2013-06-19 21:14:00
5:34 PM,71.6,53.6,53,30.12,10.0,SSE,9.2,-,N/A,,Clear,150,2013-06-19 21:34:00
5:54 PM,71.6,55.4,57,30.12,10.0,SSE,8.1,-,N/A,,Clear,160,2013-06-19 21:54:00
6:14 PM,71.6,55.4,57,30.12,10.0,SSE,6.9,-,N/A,,Clear,150,2013-06-19 22:14:00
6:35 PM,69.8,55.4,60,30.12,10.0,SE,5.8,-,N/A,,Clear,140,2013-06-19 22:35:00
6:55 PM,69.8,53.6,56,30.12,10.0,SSE,8.1,-,N/A,,Clear,150,2013-06-19 22:55:00
7:15 PM,69.8,51.8,53,30.12,10.0,SE,4.6,-,N/A,,Clear,130,2013-06-19 23:15:00
7:35 PM,69.8,53.6,56,30.12,10.0,SSE,5.8,-,N/A,,Clear,150,2013-06-19 23:35:00
7:55 PM,69.8,51.8,53,30.13,10.0,SE,5.8,-,N/A,,Clear,140,2013-06-19 23:55:00
8:15 PM,68.0,51.8,56,30.13,10.0,SE,5.8,-,N/A,,Clear,140,2013-06-20 00:15:00
8:35 PM,66.2,51.8,60,30.13,10.0,ESE,4.6,-,N/A,,Clear,120,2013-06-20 00:35:00
8:56 PM,64.4,51.8,64,30.13,10.0,SE,4.6,-,N/A,,Clear,130,2013-06-20 00:56:00
9:16 PM,64.4,51.8,64,30.13,10.0,SE,3.5,-,N/A,,Clear,130,2013-06-20 01:16:00
9:36 PM,64.4,51.8,64,30.14,7.0,SE,3.5,-,N/A,,Clear,140,2013-06-20 01:36:00
9:56 PM,62.6,53.6,72,30.15,10.0,Calm,Calm,-,N/A,,Clear,0,2013-06-20 01:56:00
10:16 PM,60.8,53.6,77,30.15,10.0,Calm,Calm,-,N/A,,Clear,0,2013-06-20 02:16:00
10:36 PM,60.8,53.6,77,30.16,10.0,Calm,Calm,-,N/A,,Clear,0,2013-06-20 02:36:00
10:51 PM,60.8,53.6,77,30.16,10.0,ESE,3.5,-,N/A,,Clear,110,2013-06-20 02:51:00
11:11 PM,60.8,53.6,77,30.16,10.0,ESE,3.5,-,N/A,,Clear,120,2013-06-20 03:11:00
11:32 PM,60.8,51.8,72,30.15,10.0,ESE,3.5,-,N/A,,Clear,110,2013-06-20 03:32:00
11:52 PM,60.8,51.8,72,30.16,10.0,ESE,3.5,-,N/A,,Clear,110,2013-06-20 03:52:00